Weather History for KTTN - June, 2012

Change the Weather History Date:

Tuesday, June 5, 2012

  Actual Average Record
Temperature  
Mean Temperature 58 °F 68 °F  
Max Temperature 67 °F 78 °F 98 °F (1899)
Min Temperature 48 °F 57 °F 46 °F (1997)
Degree Days  
Heating Degree Days 7 2  
Month to date heating degree days 15 10  
Since 1 June heating degree days 15 10  
Since 1 July heating degree days 3669 5146  
Cooling Degree Days 0 4  
Month to date cooling degree days 2 19  
Year to date cooling degree days 158 76  
Since 1 June cooling degree days 2 19  
Growing Degree Days 7 (Base 50)    
Moisture  
Dew Point 47 °F    
Average Humidity 67    
Maximum Humidity 86    
Minimum Humidity 48    
Precipitation  
Precipitation T in 0.17 in 3.10 in (1992)
Month to date precipitation 1.08 0.81  
Year to date precipitation 14.96 18.33  
Sea Level Pressure  
Sea Level Pressure 29.87 in    
Wind  
Wind Speed 5 mph (NNE)    
Max Wind Speed 13 mph    
Max Gust Speed 39 mph    
Visibility 10 miles    
Events      
T = Trace of Precipitation, MM = Missing Value Source: NWS Daily Summary

Daily Weather History Graph

Daily Weather History Graph

Search for Another Location

Airport or City:

Trip Planner

Search our weather history database for the weather conditions in past years. The results will help you decide how hot, cold, wet, or windy it might be!

Date:

Astronomy

Jun. 05, 2012 Rise Set
Actual Time 5:30 AM EDT 8:25 PM EDT
Civil Twilight 4:57 AM EDT 8:58 PM EDT
Nautical Twilight 4:16 AM EDT 9:39 PM EDT
Astronomical Twilight 3:28 AM EDT 10:27 PM EDT
Moon 9:48 PM EDT (6/5) 6:39 AM EDT (6/5)
Length of Visible Light 16h 01m
Length of Day
14h 55m
Full, 98% of the Moon is Illuminated
Jun 5
Full
Jun 11
Last Quarter
Jun 19
New
Jun 26
First Quarter
Jul 3
Full

Hourly Weather History & Observations

Time (EDT) Temp. Dew Point Humidity Pressure Visibility Wind Dir Wind Speed Gust Speed Precip Events Conditions
12:53 AM 53.1 °F 48.9 °F 86% 29.79 in 10.0 mi NE 6.9 mph - N/A   Overcast
1:53 AM 52.0 °F 46.9 °F 83% 29.79 in 10.0 mi NE 4.6 mph - N/A   Mostly Cloudy
2:53 AM 51.1 °F 46.9 °F 86% 29.79 in 10.0 mi NNE 6.9 mph - N/A   Clear
3:53 AM 50.0 °F 46.0 °F 86% 29.79 in 10.0 mi NNE 5.8 mph - N/A   Clear
4:53 AM 48.9 °F 45.0 °F 86% 29.81 in 10.0 mi North 5.8 mph - N/A   Clear
5:53 AM 48.0 °F 45.0 °F 89% 29.83 in 10.0 mi North 4.6 mph - N/A   Clear
6:53 AM 51.1 °F 46.0 °F 83% 29.84 in 10.0 mi North 6.9 mph - N/A   Clear
7:53 AM 55.0 °F 48.0 °F 77% 29.86 in 10.0 mi North 5.8 mph - N/A   Clear
8:53 AM 57.2 °F 46.4 °F 67% 29.88 in 10.0 mi NNE 8.1 mph - N/A   Clear
9:40 AM 59.0 °F 46.4 °F 63% 29.88 in 10.0 mi NNE 10.4 mph 16.1 mph N/A   Mostly Cloudy
9:53 AM 61.0 °F 48.0 °F 62% 29.87 in 10.0 mi NNE 6.9 mph - N/A   Mostly Cloudy
10:53 AM 62.1 °F 46.0 °F 56% 29.88 in 10.0 mi Variable 4.6 mph - N/A   Mostly Cloudy
11:53 AM 61.0 °F 45.0 °F 56% 29.88 in 10.0 mi Calm Calm - N/A   Overcast
12:53 PM 64.0 °F 45.0 °F 50% 29.88 in 10.0 mi Variable 5.8 mph - N/A   Overcast
1:53 PM 64.9 °F 46.0 °F 50% 29.88 in 10.0 mi Variable 6.9 mph - N/A   Overcast
2:53 PM 66.9 °F 46.0 °F 47% 29.87 in 10.0 mi WNW 3.5 mph - N/A   Mostly Cloudy
3:53 PM 64.0 °F 45.0 °F 50% 29.87 in 10.0 mi North 5.8 mph - N/A   Overcast
4:53 PM 64.9 °F 46.0 °F 50% 29.87 in 10.0 mi North 8.1 mph - N/A   Overcast
5:53 PM 64.0 °F 46.0 °F 52% 29.88 in 10.0 mi East 5.8 mph - N/A   Overcast
6:53 PM 63.0 °F 48.0 °F 58% 29.90 in 10.0 mi ENE 5.8 mph - N/A   Overcast
7:53 PM 63.0 °F 46.9 °F 56% 29.91 in 10.0 mi Calm Calm - N/A   Overcast
8:53 PM 59.0 °F 48.9 °F 69% 29.91 in 10.0 mi Calm Calm - 0.00 in   Mostly Cloudy
9:53 PM 59.0 °F 48.9 °F 69% 29.93 in 10.0 mi Calm Calm - N/A   Mostly Cloudy
10:53 PM 57.0 °F 52.0 °F 83% 29.93 in 10.0 mi North 5.8 mph - N/A   Overcast
11:53 PM 55.9 °F 51.1 °F 84% 29.94 in 10.0 mi Calm Calm - N/A   Clear